Weather History for Tapachula Airport, Mexico

Change the Weather History Date:

Monday, October 15, 2012

  Actual Average Record
Temperature  
Mean Temperature 81 °F -  
Max Temperature 87 °F 85 °F 89 °F (1996)
Min Temperature 75 °F 73 °F 68 °F (1997)
Cooling Degree Days 16    
Growing Degree Days 31 (Base 50)    
Moisture  
Dew Point 76 °F    
Average Humidity 82    
Maximum Humidity 100    
Minimum Humidity 66    
Precipitation  
Precipitation 0.00 in - - ()
Sea Level Pressure  
Sea Level Pressure 29.87 in    
Wind  
Wind Speed 3 mph ()    
Max Wind Speed 12 mph    
Max Gust Speed -    
Visibility 10.0 miles    
Events      
Averages and records for this station are not official NWS values.
T = Trace of Precipitation, MM = Missing Value Source: Averaged Metar Reports

Daily Weather History Graph

Daily Weather History Graph

Search for Another Location

Airport:

Trip Planner

Search our weather history database for the weather conditions in past years. The results will help you decide how hot, cold, wet, or windy it might be!

Date:

Astronomy

Oct. 15, 2012 Rise Set
Actual Time 7:01 AM CDT 6:49 PM CDT
Civil Twilight 6:39 AM CDT 7:10 PM CDT
Nautical Twilight 6:14 AM CDT 7:35 PM CDT
Astronomical Twilight 5:49 AM CDT 8:00 PM CDT
Moon 7:03 AM CDT (10/15) 7:02 PM CDT (10/15)
Length of Visible Light 12h 31m
Length of Day
11h 48m
New Moon, 0% of the Moon is Illuminated
Oct 15
New Moon
Oct 21
First Quarter
Oct 29
Full
Nov 6
Last Quarter
Nov 13
New

Hourly Weather History & Observations

Time (CDT) Temp. Heat Index Dew Point Humidity Pressure Visibility Wind Dir Wind Speed Gust Speed Precip Events Conditions
12:44 AM 77.0 °F - 77.0 °F 100% 29.83 in 10.0 mi Calm Calm - N/A   Scattered Clouds
1:40 AM 77.0 °F - 77.0 °F 100% 29.93 in 10.0 mi Calm Calm - N/A   Scattered Clouds
2:40 AM 77.0 °F - 75.2 °F 94% 29.90 in 10.0 mi Calm Calm - N/A   Scattered Clouds
3:40 AM 75.2 °F - 75.2 °F 100% 29.88 in 10.0 mi Calm Calm - N/A   Scattered Clouds
4:40 AM 75.2 °F - 75.2 °F 100% 29.90 in 10.0 mi Calm Calm - N/A   Scattered Clouds
6:40 AM 75.2 °F - 73.4 °F 94% 29.81 in 10.0 mi Calm Calm - N/A   Scattered Clouds
7:40 AM 75.2 °F - 73.4 °F 94% 29.89 in 10.0 mi Calm Calm - N/A   Scattered Clouds
8:40 AM 80.6 °F 86.2 °F 75.2 °F 84% 29.89 in 10.0 mi Calm Calm - N/A   Scattered Clouds
9:40 AM 84.2 °F 92.3 °F 75.2 °F 74% 29.88 in 10.0 mi Calm Calm - N/A   Scattered Clouds
10:40 AM 87.8 °F 99.7 °F 77.0 °F 70% 29.93 in 10.0 mi Calm Calm - N/A   Scattered Clouds
11:40 AM 87.8 °F 97.6 °F 75.2 °F 66% 29.94 in 10.0 mi Calm Calm - N/A   Scattered Clouds
12:45 PM 86.0 °F 95.1 °F 75.2 °F 70% 29.86 in 10.0 mi SW 5.8 mph - N/A   Scattered Clouds
1:40 PM 87.8 °F 99.7 °F 77.0 °F 70% 29.89 in 10.0 mi SW 9.2 mph - N/A   Scattered Clouds
2:40 PM 87.8 °F 99.7 °F 77.0 °F 70% 29.84 in 10.0 mi SW 9.2 mph - N/A   Scattered Clouds
3:40 PM 87.8 °F 99.7 °F 77.0 °F 70% 29.86 in 10.0 mi SW 9.2 mph - N/A   Scattered Clouds
4:40 PM 87.8 °F 99.7 °F 77.0 °F 70% 29.79 in 10.0 mi SW 11.5 mph - N/A   Scattered Clouds
5:40 PM 84.2 °F 94.1 °F 77.0 °F 79% 29.81 in 10.0 mi SW 11.5 mph - N/A   Scattered Clouds
6:40 PM 84.2 °F 94.1 °F 77.0 °F 79% 29.81 in 10.0 mi SW 11.5 mph - N/A   Scattered Clouds
7:40 PM 84.2 °F 94.1 °F 77.0 °F 79% 29.85 in 10.0 mi NE 6.9 mph - N/A   Scattered Clouds
8:40 PM 84.2 °F 94.1 °F 77.0 °F 79% 29.88 in 10.0 mi East 11.5 mph - N/A   Scattered Clouds
9:40 PM 84.2 °F 94.1 °F 77.0 °F 79% 29.86 in 10.0 mi NE 6.9 mph - N/A   Scattered Clouds
10:40 PM 84.2 °F 94.1 °F 77.0 °F 79% 29.89 in 10.0 mi NE 6.9 mph - N/A   Scattered Clouds
11:40 PM 77.0 °F - 75.2 °F 94% 29.91 in 10.0 mi Calm Calm - N/A   Scattered Clouds